Time,TemperatureF,DewpointF,PressureIn,WindDirection,WindDirectionDegrees,WindSpeedMPH,WindSpeedGustMPH,Humidity,HourlyPrecipIn,Conditions,Clouds,dailyrainin,SoftwareType,DateUTC
2013-08-06 00:01:00,65.0,60.0,29.92,West,273,0.0,0.0,83,0.00,,,0.00,,2013-08-06 04:01:00,
2013-08-06 00:22:00,65.0,60.0,29.92,West,273,0.0,0.0,84,0.00,,,0.00,,2013-08-06 04:22:00,
2013-08-06 00:33:00,64.0,59.0,29.92,West,273,0.0,0.0,85,0.00,,,0.00,,2013-08-06 04:33:00,
2013-08-06 00:44:00,64.0,60.0,29.92,West,273,0.0,0.0,86,0.00,,,0.00,,2013-08-06 04:44:00,
2013-08-06 00:53:00,64.0,60.0,29.92,West,273,0.0,0.0,86,0.00,,,0.00,,2013-08-06 04:53:00,
2013-08-06 01:02:00,64.0,60.0,29.92,West,273,0.0,0.0,87,0.00,,,0.00,,2013-08-06 05:02:00,
2013-08-06 01:11:00,64.0,60.0,29.92,West,273,0.0,0.0,87,0.00,,,0.00,,2013-08-06 05:11:00,
2013-08-06 01:53:00,64.0,61.0,29.92,West,273,0.0,0.0,89,0.00,,,0.00,,2013-08-06 05:53:00,
2013-08-06 02:02:00,64.0,61.0,29.91,West,273,0.0,0.0,89,0.00,,,0.00,,2013-08-06 06:02:00,
2013-08-06 02:11:00,64.0,61.0,29.91,West,273,0.0,0.0,90,0.00,,,0.00,,2013-08-06 06:11:00,
2013-08-06 02:22:00,64.0,61.0,29.90,West,273,0.0,0.0,90,0.00,,,0.00,,2013-08-06 06:22:00,
2013-08-06 02:32:00,64.0,61.0,29.90,West,273,0.0,0.0,90,0.00,,,0.00,,2013-08-06 06:32:00,
2013-08-06 02:43:00,64.0,61.0,29.89,West,273,0.0,0.0,91,0.00,,,0.00,,2013-08-06 06:43:00,
2013-08-06 02:52:00,64.0,61.0,29.90,West,273,0.0,0.0,91,0.00,,,0.00,,2013-08-06 06:52:00,
2013-08-06 03:01:00,64.0,61.0,29.89,West,273,0.0,0.0,90,0.00,,,0.00,,2013-08-06 07:01:00,
2013-08-06 03:12:00,64.0,61.0,29.90,West,273,0.0,0.0,90,0.00,,,0.00,,2013-08-06 07:12:00,
2013-08-06 03:22:00,64.0,61.0,29.90,West,273,0.0,0.0,90,0.00,,,0.00,,2013-08-06 07:22:00,
2013-08-06 03:32:00,64.0,61.0,29.90,West,273,0.0,0.0,90,0.00,,,0.00,,2013-08-06 07:32:00,
2013-08-06 03:43:00,64.0,61.0,29.91,West,273,0.0,0.0,89,0.00,,,0.00,,2013-08-06 07:43:00,
2013-08-06 03:53:00,64.0,61.0,29.89,West,273,0.0,0.0,90,0.00,,,0.00,,2013-08-06 07:53:00,
2013-08-06 04:02:00,64.0,61.0,29.90,West,273,0.0,0.0,90,0.00,,,0.00,,2013-08-06 08:02:00,
2013-08-06 04:22:00,65.0,62.0,29.89,West,273,0.0,1.0,90,0.00,,,0.00,,2013-08-06 08:22:00,
2013-08-06 04:33:00,65.0,62.0,29.89,West,272,0.0,5.0,90,0.00,,,0.00,,2013-08-06 08:33:00,
2013-08-06 04:43:00,65.0,62.0,29.89,West,272,0.0,4.0,90,0.00,,,0.00,,2013-08-06 08:43:00,
2013-08-06 04:52:00,65.0,62.0,29.88,West,272,0.0,1.0,91,0.00,,,0.00,,2013-08-06 08:52:00,
2013-08-06 05:01:00,65.0,62.0,29.88,West,272,0.0,1.0,91,0.00,,,0.00,,2013-08-06 09:01:00,
2013-08-06 05:11:00,65.0,62.0,29.88,West,272,0.0,1.0,91,0.00,,,0.00,,2013-08-06 09:11:00,
2013-08-06 05:22:00,64.0,62.0,29.88,West,272,0.0,0.0,92,0.00,,,0.00,,2013-08-06 09:22:00,
2013-08-06 05:32:00,64.0,62.0,29.88,West,272,0.0,0.0,92,0.00,,,0.00,,2013-08-06 09:32:00,
2013-08-06 05:43:00,64.0,62.0,29.88,West,272,0.0,0.0,92,0.00,,,0.00,,2013-08-06 09:43:00,
2013-08-06 05:52:00,64.0,62.0,29.88,West,272,0.0,0.0,92,0.00,,,0.00,,2013-08-06 09:52:00,
2013-08-06 06:01:00,64.0,62.0,29.88,West,272,0.0,0.0,92,0.00,,,0.00,,2013-08-06 10:01:00,
2013-08-06 08:43:00,65.0,63.0,29.88,West,275,2.0,5.0,92,0.00,,,0.00,,2013-08-06 12:43:00,
2013-08-06 08:52:00,65.0,62.0,29.88,West,265,0.0,6.0,91,0.00,,,0.00,,2013-08-06 12:52:00,
2013-08-06 09:02:00,65.0,62.0,29.88,West,265,0.0,1.0,91,0.00,,,0.00,,2013-08-06 13:02:00,
2013-08-06 09:11:00,65.0,62.0,29.88,West,265,0.0,5.0,91,0.00,,,0.00,,2013-08-06 13:11:00,
2013-08-06 10:01:00,66.0,63.0,29.89,West,267,2.0,4.0,91,0.00,,,0.00,,2013-08-06 14:01:00,
2013-08-06 10:11:00,66.0,63.0,29.89,West,267,0.0,4.0,91,0.00,,,0.00,,2013-08-06 14:11:00,
2013-08-06 10:22:00,67.0,64.0,29.89,WNW,286,1.0,5.0,90,0.00,,,0.00,,2013-08-06 14:22:00,
2013-08-06 11:02:00,68.0,65.0,29.90,West,263,0.0,4.0,89,0.00,,,0.00,,2013-08-06 15:02:00,
2013-08-06 11:33:00,69.0,65.0,29.88,SW,225,4.0,8.0,87,0.00,,,0.00,,2013-08-06 15:33:00,
2013-08-06 11:44:00,69.0,65.0,29.88,WSW,252,5.0,9.0,87,0.00,,,0.00,,2013-08-06 15:44:00,
2013-08-06 11:52:00,69.0,65.0,29.88,WSW,254,5.0,10.0,87,0.00,,,0.00,,2013-08-06 15:52:00,
2013-08-06 12:02:00,69.0,65.0,29.89,WSW,251,5.0,10.0,87,0.00,,,0.00,,2013-08-06 16:02:00,
2013-08-06 12:11:00,69.0,65.0,29.89,SW,227,6.0,10.0,87,0.00,,,0.00,,2013-08-06 16:11:00,
2013-08-06 12:43:00,71.0,67.0,29.89,WSW,258,0.0,8.0,86,0.00,,,0.00,,2013-08-06 16:43:00,
2013-08-06 12:52:00,71.0,66.0,29.89,West,281,3.0,7.0,85,0.00,,,0.00,,2013-08-06 16:52:00,
2013-08-06 13:02:00,71.0,66.0,29.90,WSW,239,0.0,11.0,84,0.00,,,0.00,,2013-08-06 17:02:00,
2013-08-06 13:44:00,71.0,67.0,29.89,WSW,257,1.0,-999.0,86,-99.99,,,-99.99,,2013-08-06 17:44:00,
2013-08-06 13:52:00,71.0,66.0,29.88,NNW,335,0.0,-999.0,85,-99.99,,,-99.99,,2013-08-06 17:52:00,
2013-08-06 14:32:00,71.0,66.0,29.88,West,265,1.0,-999.0,84,-99.99,,,-99.99,,2013-08-06 18:32:00,
2013-08-06 14:52:00,72.0,67.0,29.88,WSW,238,0.0,-999.0,85,-99.99,,,-99.99,,2013-08-06 18:52:00,
2013-08-06 15:01:00,72.0,67.0,29.88,WSW,237,1.0,-999.0,85,-99.99,,,-99.99,,2013-08-06 19:01:00,
2013-08-06 15:11:00,72.0,67.0,29.88,WSW,237,1.0,-999.0,85,-99.99,,,-99.99,,2013-08-06 19:11:00,
2013-08-06 15:21:00,72.0,67.0,29.88,WSW,237,1.0,-999.0,85,-99.99,,,-99.99,,2013-08-06 19:21:00,
2013-08-06 15:32:00,72.0,67.0,29.88,WSW,237,1.0,-999.0,85,-99.99,,,-99.99,,2013-08-06 19:32:00,
2013-08-06 16:44:00,72.0,68.0,29.86,West,273,0.0,6.0,87,0.00,,,0.00,,2013-08-06 20:44:00,
2013-08-06 17:43:00,72.0,68.0,29.86,West,267,1.0,6.0,86,0.00,,,0.00,,2013-08-06 21:43:00,
2013-08-06 17:52:00,73.0,68.0,29.86,SW,232,6.0,9.0,85,0.00,,,0.00,,2013-08-06 21:52:00,
2013-08-06 18:01:00,73.0,68.0,29.86,SW,217,3.0,9.0,85,0.00,,,0.00,,2013-08-06 22:01:00,
2013-08-06 18:11:00,73.0,68.0,29.85,SSW,197,3.0,7.0,83,0.00,,,0.00,,2013-08-06 22:11:00,
2013-08-06 18:32:00,74.0,68.0,29.85,WSW,257,4.0,7.0,83,0.00,,,0.00,,2013-08-06 22:32:00,
2013-08-06 18:43:00,73.0,68.0,29.84,WSW,240,1.0,8.0,83,0.00,,,0.00,,2013-08-06 22:43:00,
2013-08-06 19:01:00,74.0,68.0,29.85,WSW,239,0.0,5.0,83,0.00,,,0.00,,2013-08-06 23:01:00,
2013-08-06 19:11:00,74.0,68.0,29.86,WSW,248,1.0,3.0,82,0.00,,,0.00,,2013-08-06 23:11:00,
2013-08-06 19:52:00,74.0,68.0,29.85,WNW,292,0.0,7.0,81,0.00,,,0.00,,2013-08-06 23:52:00,
2013-08-06 20:01:00,74.0,68.0,29.85,WSW,252,0.0,3.0,82,0.00,,,0.00,,2013-08-07 00:01:00,
2013-08-06 20:11:00,74.0,68.0,29.85,WSW,252,0.0,1.0,83,0.00,,,0.00,,2013-08-07 00:11:00,
2013-08-06 20:21:00,74.0,68.0,29.85,WSW,252,0.0,0.0,83,0.00,,,0.00,,2013-08-07 00:21:00,
2013-08-06 20:32:00,73.0,68.0,29.85,WSW,252,0.0,2.0,85,0.00,,,0.00,,2013-08-07 00:32:00,
2013-08-06 20:43:00,73.0,69.0,29.85,WSW,252,0.0,0.0,86,0.00,,,0.00,,2013-08-07 00:43:00,
2013-08-06 20:52:00,72.0,68.0,29.85,WSW,252,0.0,0.0,87,0.00,,,0.00,,2013-08-07 00:52:00,
2013-08-06 21:01:00,71.0,67.0,29.85,WSW,252,0.0,1.0,88,0.00,,,0.00,,2013-08-07 01:01:00,
2013-08-06 21:11:00,71.0,67.0,29.85,WSW,252,0.0,0.0,88,0.00,,,0.00,,2013-08-07 01:11:00,
2013-08-06 21:43:00,69.0,66.0,29.86,WSW,252,0.0,0.0,91,0.00,,,0.00,,2013-08-07 01:43:00,
2013-08-06 21:52:00,69.0,66.0,29.86,WSW,252,0.0,0.0,91,0.00,,,0.00,,2013-08-07 01:52:00,
2013-08-06 22:02:00,68.0,66.0,29.86,WSW,252,0.0,0.0,92,0.00,,,0.00,,2013-08-07 02:02:00,
2013-08-06 22:11:00,68.0,66.0,29.86,WSW,252,0.0,0.0,93,0.00,,,0.00,,2013-08-07 02:11:00,
2013-08-06 22:53:00,67.0,65.0,29.85,WSW,252,0.0,0.0,94,0.00,,,0.00,,2013-08-07 02:53:00,
2013-08-06 23:43:00,66.0,65.0,29.85,WSW,252,0.0,0.0,95,0.00,,,0.00,,2013-08-07 03:43:00,
2013-08-06 23:52:00,65.0,64.0,29.84,WSW,252,0.0,0.0,95,0.00,,,0.00,,2013-08-07 03:52:00,